CZ-4C DEB, 42671

Orbit data source: Space-Track

CZ-4C DEB, 42671 is space debris in SSO originally from a launch on Thu, 26 Nov 2015 UTC launched from the Taiyaun Space Center, China (TSC). Debris objects in space refer to the collection of defunct objects orbiting the Earth. Examples of debris include non-operational satellites, rocket bodies, and fragments generated from explosions, collisions, or faulty payload assembly.

Loading next visibility...
Identifier
42671, 2015-069D
Orbit
SSO
Last TLE update
22 hours ago
Origin
Manufacturer
Unknown
Mission
Spacecraft
Bus & Motor
Unknown
Mass
Unknown
Launch date (UTC)
2015-11-26 (10 years ago)
Launch vehicle
Unknown
Launch site
Taiyaun Space Center, China (TSC)
Object type
Payload
Rocket body
Debris
Shape & HBR
Unknown
Radar Cross Section
Small (<0.1 m²)

Expand to show TLE details & history

TLE from 22 hours ago
0 CZ-4C DEB
1 42671U 15069D   25187.07905106  .00004193  00000-0  58597-3 0  9996
2 42671  97.8302  55.2252 0122427  50.1300 311.0599 14.73058366505460
Epoch: 2025-07-06T01:53Z
TLE epoch observation values (Epoch: 2025-07-06T01:53:50.011Z)
Latitude
-0.00005°
Longitude
102.45893°
Altitude
598.402 km
Speed
7.591 km/s
True Right ascension
03h 40m 54s
True Declination
0° 00' 00"
Sunlit
Object was in daylight at epoch
Visualization orbit readout
Latitude
77.0473°
Longitude
66.83721°
Altitude
591.331 km
Speed
7.611 km/s
Apparent Right ascension
23h 53m 26s
Apparent Declination
23° 06' 32"
Sunlit
Object is in daylight
Visualization observer readout
Local Sidereal Time
11:26:49
Azimuth
353.15° N
Elevation
-26.67°
Doppler factor
1
Orbital elements
Apogee altitude
734.391 km
Perigee altitude
562.344 km
Semi-major axis
7,026.505 km
Eccentricity
0.01224
Inclination
97.8302°
RAAN
55.2252°
Arg. of periapsis
50.13°
True anomaly
Unknown
Mean anomaly
311.0599°
Eccentric anomaly
Unknown
Mean motion
3.68497 °/min
Orbital period
97.69 mins
BSTAR
0.00058597
Loading maneuver chart data...
Loading SW <> Apogee altitude chart data...
Loading historical data...
Loading historical data...
Loading historical data...
Loading historical data...
Loading historical data...
Loading historical data...
Loading historical data...
Other satellites on launch #69 in the year 2015 (2015-11-26 UTC)

CZ-4C DEB Visibility forecast

Observer location: undefined°, undefined°

Span
Click to sort rows by Start time (UTC) header in descending order
Start Az.
Max El. time (UTC)
Max El. Az.
Max El.
End time (UTC)
End Az.
4 mins2025-07-07 02:56:31.365Z59.787° ENE2025-07-07 02:58:31.365Z87.791° E14.764°2025-07-07 03:00:31.365Z117.464° SE
6 mins2025-07-07 04:33:31.365Z347.39° N2025-07-07 04:35:31.365Z297.713° NW36.018°2025-07-07 04:39:31.365Z216.159° SW
6 mins2025-07-07 15:31:31.365Z186.772° SSW2025-07-07 15:34:31.365Z288.202° WNW38.296°2025-07-07 15:37:31.365Z336.975° NNW
|